This is the latest recevied weather packets stored in our database for station/object SP8MDH-L. If no packets are shown the sender has not sent any weather packets the latest 10 day(s).
| Time | Temp. | Humidity | Pressure | Rain* | Wind** | Luminosity | Snow |
|---|---|---|---|---|---|---|---|
| 1788025243 | 27.22° C | 35% | 1016.2 hPa | - | - | - | - |
| 1788023743 | 27.22° C | 35% | 1016.1 hPa | - | - | - | - |
| 1788020742 | 27.22° C | 35% | 1016.1 hPa | - | - | - | - |
| 1788019242 | 26.67° C | 35% | 1016.1 hPa | - | - | - | - |
| 1788017742 | 26.67° C | 36% | 1016.1 hPa | - | - | - | - |
| 1788016241 | 26.67° C | 36% | 1016.2 hPa | - | - | - | - |
| 1788010241 | 26.11° C | 36% | 1015.9 hPa | - | - | - | - |
| 1788007241 | 25.56° C | 36% | 1015.6 hPa | - | - | - | - |
| 1788005741 | 25.56° C | 35% | 1015.4 hPa | - | - | - | - |
| 1788004241 | 25.56° C | 35% | 1015.3 hPa | - | - | - | - |
| 1788002741 | 25.56° C | 35% | 1015.3 hPa | - | - | - | - |
| 1788001240 | 25° C | 35% | 1015.4 hPa | - | - | - | - |
| 1787999740 | 25.56° C | 34% | 1015.2 hPa | - | - | - | - |
| 1787998240 | 25.56° C | 33% | 1015.1 hPa | - | - | - | - |
| 1787996739 | 25.56° C | 33% | 1015.1 hPa | - | - | - | - |
| 1787995239 | 25.56° C | 33% | 1014.7 hPa | - | - | - | - |
| 1787993739 | 25.56° C | 32% | 1014.6 hPa | - | - | - | - |
| 1787992239 | 25° C | 33% | 1014.6 hPa | - | - | - | - |
| 1787990739 | 25° C | 33% | 1014.2 hPa | - | - | - | - |
| 1787989239 | 25° C | 32% | 1014 hPa | - | - | - | - |
| 1787987739 | 25° C | 32% | 1014 hPa | - | - | - | - |
| 1787986238 | 25° C | 31% | 1014.1 hPa | - | - | - | - |
| 1787984738 | 25° C | 31% | 1014.2 hPa | - | - | - | - |
| 1787983238 | 25° C | 31% | 1014.2 hPa | - | - | - | - |
| 1787981738 | 25° C | 31% | 1014.3 hPa | - | - | - | - |
* Rain since midnight (hover to see other rain measurements)
** Current wind speed in m/s (hover to see current wind gust speed)